Weather History for KGPI - November, 2011

Change the Weather History Date:

Saturday, November 5, 2011

  Actual Average Record
Temperature  
Mean Temperature 31 °F 36 °F  
Max Temperature 41 °F 45 °F 66 °F (2012)
Min Temperature 20 °F 26 °F 4 °F (2003)
Degree Days  
Heating Degree Days 34 30  
Month to date heating degree days 160 145  
Since 1 July heating degree days 1194 1353  
Cooling Degree Days 0 0  
Month to date cooling degree days 0 0  
Year to date cooling degree days 97 147  
Moisture  
Dew Point 28 °F    
Average Humidity 72    
Maximum Humidity 100    
Minimum Humidity 44    
Precipitation  
Precipitation 0.01 in 0.04 in 0.57 in (1991)
Month to date precipitation 0.03 0.22  
Year to date precipitation 15.04 14.22  
Snow  
Snow T in - - ()
Month to date snowfall T  
Year to date snowfall 27.0  
Since 1 July snowfall T  
Snow Depth 0.00 in    
Sea Level Pressure  
Sea Level Pressure 29.74 in    
Wind  
Wind Speed 1 mph (WSW)    
Max Wind Speed 9 mph    
Max Gust Speed 16 mph    
Visibility 7 miles    
Events Snow    
T = Trace of Precipitation, MM = Missing Value Source: NWS Daily Summary

Daily Weather History Graph

Daily Weather History Graph

Search for Another Location

Airport or City:

Trip Planner

Search our weather history database for the weather conditions in past years. The results will help you decide how hot, cold, wet, or windy it might be!

Date:

Astronomy

Nov. 05, 2011 Rise Set
Actual Time 8:28 AM MDT 6:11 PM MDT
Civil Twilight 7:55 AM MDT 6:45 PM MDT
Nautical Twilight 7:18 AM MDT 7:22 PM MDT
Astronomical Twilight 6:41 AM MDT 7:58 PM MDT
Moon 3:49 PM MDT (11/5) 3:22 AM MDT (11/5)
Length of Visible Light 10h 49m
Length of Day
9h 43m
Waxing Gibbous, 78% of the Moon is Illuminated
Nov 5
Waxing Gibbous
Nov 10
Full
Nov 18
Last Quarter
Nov 24
New
Dec 2
First Quarter

Hourly Weather History & Observations

Time (MDT) Temp. Windchill Dew Point Humidity Pressure Visibility Wind Dir Wind Speed Gust Speed Precip Events Conditions
12:15 AM 33.8 °F 30.8 °F 32.0 °F 93% 29.67 in 8.0 mi South 3.5 mph - N/A   Overcast
12:55 AM 33.1 °F 30.0 °F 32.0 °F 96% 29.70 in 7.0 mi South 3.5 mph - N/A   Overcast
1:23 AM 33.8 °F - 32.0 °F 93% 29.66 in 8.0 mi Calm Calm - 0.00 in   Overcast
1:55 AM 33.1 °F - 32.0 °F 96% 29.71 in 4.0 mi Calm Calm - 0.00 in Snow Light Snow
2:04 AM 33.8 °F - 32.0 °F 93% 29.67 in 5.0 mi Calm Calm - 0.00 in Snow Light Snow
2:46 AM 33.8 °F - 32.0 °F 93% 29.66 in 4.0 mi Calm Calm - 0.00 in Snow Light Snow
2:55 AM 33.1 °F - 32.0 °F 96% 29.70 in 4.0 mi Calm Calm - 0.00 in Snow Light Snow
3:12 AM 33.8 °F - 32.0 °F 93% 29.66 in 2.5 mi Calm Calm - N/A Snow Light Snow
3:21 AM 33.8 °F - 32.0 °F 93% 29.66 in 3.0 mi Calm Calm - 0.00 in Snow Light Snow
3:31 AM 33.8 °F - 32.0 °F 93% 29.66 in 2.0 mi Calm Calm - 0.00 in Snow Light Snow
3:47 AM 32.0 °F - 32.0 °F 100% 29.66 in 1.8 mi Calm Calm - 0.00 in Snow Light Snow
3:55 AM 32.0 °F - 32.0 °F 100% 29.70 in 1.2 mi Calm Calm - 0.01 in Snow Light Snow
4:01 AM 33.8 °F - 32.0 °F 93% 29.65 in 2.0 mi Calm Calm - 0.00 in Snow Light Snow
4:21 AM 33.8 °F - 32.0 °F 93% 29.65 in 3.0 mi Calm Calm - 0.00 in Snow Light Snow
4:55 AM 32.0 °F - 32.0 °F 100% 29.70 in 3.0 mi Calm Calm - 0.00 in Snow Light Snow
5:36 AM 32.0 °F - 30.2 °F 93% 29.65 in 6.0 mi Calm Calm - 0.00 in   Overcast
5:48 AM 32.0 °F - 32.0 °F 100% 29.65 in 7.0 mi Calm Calm - 0.00 in   Overcast
5:55 AM 32.0 °F - 32.0 °F 100% 29.71 in 6.0 mi Calm Calm - 0.00 in   Overcast
6:26 AM 32.0 °F - 30.2 °F 93% 29.66 in 6.0 mi Calm Calm - N/A   Overcast
6:55 AM 30.9 °F - 30.0 °F 96% 29.72 in 7.0 mi Calm Calm - N/A   Overcast
7:55 AM 30.9 °F - 30.0 °F 96% 29.74 in 10.0 mi Calm Calm - N/A   Overcast
8:55 AM 30.9 °F - 30.0 °F 96% 29.76 in 7.0 mi Calm Calm - N/A   Overcast
9:55 AM 32.0 °F - 30.0 °F 92% 29.78 in 6.0 mi Calm Calm - N/A   Overcast
10:55 AM 35.1 °F - 30.9 °F 85% 29.78 in 10.0 mi Calm Calm - N/A   Mostly Cloudy
11:55 AM 37.9 °F 34.4 °F 28.9 °F 70% 29.78 in 10.0 mi NW 4.6 mph - N/A   Overcast
12:55 PM 37.9 °F 34.4 °F 26.1 °F 62% 29.78 in 10.0 mi West 4.6 mph - N/A   Overcast
1:55 PM 37.0 °F 34.5 °F 23.0 °F 57% 29.78 in 10.0 mi Variable 3.5 mph - N/A   Overcast
2:55 PM 39.0 °F 34.0 °F 21.0 °F 49% 29.78 in 10.0 mi North 6.9 mph - N/A   Overcast
3:55 PM 39.9 °F 37.8 °F 19.0 °F 43% 29.78 in 10.0 mi Variable 3.5 mph - N/A   Overcast
4:55 PM 37.0 °F 34.5 °F 21.0 °F 52% 29.80 in 10.0 mi Variable 3.5 mph - N/A   Overcast
5:55 PM 35.1 °F - 21.9 °F 59% 29.81 in 10.0 mi Calm Calm - N/A   Overcast
6:55 PM 30.9 °F 27.5 °F 19.9 °F 64% 29.84 in 10.0 mi South 3.5 mph - N/A   Mostly Cloudy
7:55 PM 30.0 °F - 25.0 °F 82% 29.85 in 10.0 mi Calm Calm - N/A   Mostly Cloudy
8:55 PM 28.9 °F - 24.1 °F 82% 29.86 in 10.0 mi Calm Calm - N/A   Overcast
9:55 PM 28.9 °F - 24.1 °F 82% 29.87 in 10.0 mi Calm Calm - N/A   Overcast
10:55 PM 25.0 °F - 21.0 °F 85% 29.88 in 10.0 mi Calm Calm - N/A   Clear
11:55 PM 25.0 °F - 19.9 °F 81% 29.88 in 10.0 mi Calm Calm - N/A   Clear